AirNav   Everest Fuels
 
 338 users online  

9MO7 Urbana Area Medical Heliport
Urbana, Missouri, USA

GOING TO URBANA?


FAA INFORMATION EFFECTIVE 21 MAY 2020

Location

FAA Identifier: 9MO7
Lat/Long: 37-50-30.1270N 093-10-00.6930W
37-50.502117N 093-10.011550W
37.8417019,-93.1668592
(estimated)
Elevation: 1050 ft. / 320 m (estimated)
Variation: 04E (1985)
Time zone: UTC -5 (UTC -6 during Standard Time)
Zip code: 65767

Heliport Operations

Heliport use: Private use. Permission required prior to landing
Activation date: 11/1990
Control tower: no
ARTCC: KANSAS CITY CENTER
FSS: COLUMBIA FLIGHT SERVICE STATION
Attendance: UNATNDD
Wind indicator: yes
Segmented circle: no
Lights: SS-SR
Beacon: RED ROTG BCN.

Nearby radio navigation aids

VOR radial/distance  VOR name  Freq  Var
SHYr246/29.3SUNSHINE VOR/DME108.4000E
SGFr011/30.2SPRINGFIELD VORTAC116.9004E

 
NDB name  Hdg/Dist  Freq  Var  ID
GOLDEN VALLEY141/39.538801EGLY --. .-.. -.--

Heliport Services

Runway Information

Helipad H1

Dimensions: 40 x 40 ft. / 12 x 12 m
Surface: concrete
Runway edge lights: FLD
Latitude: 37-50.502117N
Longitude: 093-10.011550W
Elevation: 1050.0 ft.
Traffic pattern: leftleft

Heliport Ownership and Management from official FAA records

Ownership: Publicly-owned
Owner: CITY OF URBANA
PO BOX 227
URBANA, MO 65767
Phone 417-993-4643
Manager: ROD HOOPER
PO BOX 227
URBANA, MO 65767
Phone 417-993-5447

Additional Remarks

FOR CD CTC SPRINGFIELD APCH AT 417-868-5620/5619.

Instrument Procedures

There are no published instrument procedures at 9MO7.

Some nearby airports with instrument procedures:

M17 - Bolivar Municipal Airport (17 nm SW)
KOZS - Camdenton Memorial-Lake Regional Airport (24 nm E)
KLBO - Floyd W Jones Lebanon Airport (27 nm SE)
K15 - Grand Glaize-Osage Beach Airport (28 nm NE)
KRAW - Warsaw Municipal Airport (32 nm N)
 
Loc | Ops | Rwys | IFR | FBO | Links
Com | Nav | Svcs | Stats | Notes
Area around 9MO7 (Urbana Area Medical Heliport)
 
Road maps at: MapQuest Bing Google
 
Aerial photo
No photo
 
Sectional chart

 
Airport distance calculator
Flying to Urbana Area Medical Heliport? Find the distance to fly.

From to 9MO7

Sunrise and sunset
Times for 06-Jun-2020
 Local
(UTC-5)
 Zulu
(UTC)
Morning civil twilight05:2010:20
Sunrise05:5110:51
Sunset20:3201:32
Evening civil twilight21:0302:03

Current date and time
Zulu (UTC)  06-Jun-2020 08:24:12
Local (UTC-5)  06-Jun-2020 03:24:12
 
METAR
KOZS 
24nm E 
060755Z AUTO 12004KT 10SM CLR 20/19 A2999 RMK AO2
KLBO 
27nm SE 
060755Z AUTO 00000KT 1/2SM FG VV005 20/20 A3002 RMK AO2
KRAW 
32nm N 
060755Z AUTO 00000KT 10SM CLR A2998 RMK AO2
KAIZ 
34nm NE 
060756Z AUTO 00000KT 10SM CLR 19/19 A2999 RMK AO2 SLP147 T01890189
TAF
KSGF 
38nm S 
060520Z 0606/0706 12004KT P6SM SKC FM060900 VRB04KT 6SM BR SKC FM061300 14005KT P6SM FEW200
NOTAMs
Click for the latest NOTAMs
NOTAMs are issued by the DoD/FAA and will open in a separate window not controlled by AirNav.

 

 
 

Would you like to see your business listed on this page?

 If your business provides an interesting product or service to pilots, flight crews, aircraft, or users of the Urbana Area Medical Heliport, you should consider listing it here.  To start the listing process, click on the button below
 
Add a business
 

Other Pages about Urbana Area Medical Heliport

Update a link
 
Copyright © AirNav, LLC. All rights reserved. Privacy Policy  Contact